Regional Weather Roundup
Issued by NWS Kansas City/Pleasant Hill, MO

Home | Current Version | Previous Version | Graphics & Text | Print | Product List | Glossary Off
Versions: 1 2 3 4 5 6 7 8 9 10 11 12 13 14 15 16 17 18 19 20 21 22 23 24 25 26 27

000
ASUS43 KEAX 301210
RWREAX

WEATHER ROUNDUP FOR EASTERN KANSAS AND NORTHWEST MISSOURI
NATIONAL WEATHER SERVICE KANSAS CITY/PLEASANT HILL MO
700 AM CDT FRI SEP 30 2016

KSZ040-057-103>105-MOZ028-029-037-043-301300-
...KANSAS CITY METROPOLITAN AREA...

CITY           SKY/WX    TMP DP  RH WIND       PRES   REMARKS
K.C. INTL      CLEAR     49  45  86 N7        30.25R
6HR MIN TEMP:  49; 6HR MAX TEMP:  55;

K.C. DOWNTOWN  CLEAR     53  49  86 NW3       30.24S
6HR MIN TEMP:  52; 6HR MAX TEMP:  58;

LEES SUMMIT    CLEAR     50  48  93 CALM      30.24S
6HR MIN TEMP:  49; 6HR MAX TEMP:  56;

OLATHE - IXD   CLEAR     48  47  96 NW6       30.25S
6HR MIN TEMP:  48; 6HR MAX TEMP:  53;

OLATHE - OJC   CLEAR     50  48  93 N6        30.24S
6HR MIN TEMP:  50; 6HR MAX TEMP:  57;

LAWRENCE       CLEAR     45  45 100 W5        30.26R

$$

MOZ001>008-011>017-020>025-030>033-038>040-044>046-053-054-301300-
...NORTHERN AND CENTRAL MISSOURI...

CITY           SKY/WX    TMP DP  RH WIND       PRES   REMARKS
ST. JOSEPH     CLEAR     46  45  96 N6        30.26S
6HR MIN TEMP:  46; 6HR MAX TEMP:  52;

MOSBY          SUNNY     46  46 100 NW3       30.25R
WHITEMAN AFB   CLEAR     50  50  99 N3        30.21R
6HR MIN TEMP:  49; 6HR MAX TEMP:  56;

CLINTON        CLEAR     48  48 100 CALM      30.22S
SEDALIA        CLEAR     50  48  93 NW6       30.21S
6HR MIN TEMP:  50; 6HR MAX TEMP:  56;

WARSAW         NOT AVBL
CHILLICOTHE      N/A     52  49  89 N3        30.24S
6HR MIN TEMP:  52; 6HR MAX TEMP:  58;

KIRKSVILLE     CLEAR     51  48  89 N6        30.22S
6HR MIN TEMP:  51; 6HR MAX TEMP:  55;


$$

MOZ041-047>049-056>058-063>065-088>090-097-301300-
...EASTERN AND SOUTHERN MISSOURI...

CITY           SKY/WX    TMP DP  RH WIND       PRES   REMARKS
ST. LOUIS INTL CLOUDY    62  56  80 NW9       30.12S
6HR MIN TEMP:  61; 6HR MAX TEMP:  63; 6HR PCP: TRACE;

SPIRIT OF STL  CLOUDY    62  57  83 NW8       30.12S
COLUMBIA       CLOUDY    56  53  90 N7        30.18F
JEFFERSON CITY MOCLDY    56  53  90 NW3       30.17F
ROLLA          PTCLDY    53  52  96 NW6       30.15F
OSAGE BEACH    CLEAR     52  51  97 CALM      30.20S
SPRINGFIELD    CLEAR     49  46  90 NW5       30.20R
BRANSON        CLEAR     50  48  93 CALM      30.20R
JOPLIN         CLEAR     47  46  97 CALM      30.22S
WEST PLAINS    PTCLDY    56  51  84 NW6       30.17S

$$

IAZ060-094-KSZ022-034>040-054-083-096-NEZ052-066-093-301300-
...KANSAS...SOUTHEAST NEBRASKA AND IOWA...

CITY           SKY/WX    TMP DP  RH WIND       PRES   REMARKS
TOPEKA         CLEAR     48  45  89 CALM      30.27R
6HR MIN TEMP:  47; 6HR MAX TEMP:  52;

MANHATTAN      CLEAR     44  43  96 CALM      30.28S
EMPORIA        CLEAR     47  46  97 NW5       30.26S
CHANUTE        CLEAR     50  48  93 NW6       30.24R
WICHITA        CLEAR     49  47  93 N3        30.27S
OMAHA          CLEAR     47  43  86 N6        30.30R
LINCOLN        CLEAR     43  42  97 N5        30.31S
FALLS CITY     CLEAR     47  45  93 NW6       30.28R
LAMONI         CLEAR     48  47  96 N6        30.26S
DES MOINES     PTCLDY    55  49  80 N8        30.27F

$$





USA.gov is the U.S. government's official web portal to all federal, state and local government web resources and services.